Portada
METAR-TAF:

METAR-TAF

Aeropuertos :

Base Aérea de Valencia-Bétera

Valencia, España

latitud: 39-37-26N, longitud: 0-28-26W, altitud: 127 m

Observación

El informe se hizo hace 17 minutos, a las 09:00 UTC
Viento 4 kt del oeste, variando entre suroeste y norte-noroeste
Temperatura 17°C
Humedad 68%
Presión 1008 hPa
Visibilidad 10 km o más

METAR: LEBT 150900Z AUTO 28004KT 230V340 9999 NCD 17/11 Q1008

Hora: 11:17 (09:17 UTC)


TAF: falta

Observaciones y pronósticos meteorológicos de más de 4000 aeropuertos (mensajes METAR y TAF).

Los puntos amarillos y rojos representan las estaciones disponibles.

Ponga el ratón en el punto deseado para ver el nombre de la estación.

Haga clic para ver las observaciones y los pronósticos meteorológicos.

Para cambiar el mapa : haga clic en los botones verdes con una cruz de color negro para hacer un zoom, en el botón verde con un guión para alejar o en las flechas verdes para mapas adyacentes.


METAR-TAF: